Welcome to the New NWS' Forecast!
Most changes are behind the scenes, but click here for differences you might notice.
Latest weather observations around

Tuscaloosa Regional Airport (KTCL)

Using International System of Units (Switch to English Units)
Date/ Time (CDT) Wind (kph) Vis. (km) Weather Sky Cond. Temp (°C) Rel. Humidity Wind Chill (°C) Heat Index (°C) Pressure Precip. (cm)
Air Dwpt 6 hour Altimeter (hPa) Sea level (hPa) 1 hr 3 hr 6 hr
Max Min
Oct 17 23:53 N 8 16.09 Partly Cloudy SCT075 15 11     78%     1027.1 1026.8      
Oct 17 22:53 N 8 16.09 Clear CLR 14 11     81%     1026.8 1026.6      
Oct 17 21:53 Calm 16.09 Clear CLR 14 12     87%     1026.8 1026.6      
Oct 17 20:53 Calm 16.09 Clear   16 12     78%     1026.4 1026.3      
Oct 17 19:53 N 8 16.09 Mostly Clear FEW080 17 11     67%     1026.1 1025.9      
Oct 17 18:53 N 9 16.09 Cloudy OVC080 18 10     60%     1026.1 1025.8      
Oct 17 17:53 NNE 13 16.09 Cloudy OVC075 19 10     56%     1025.4 1025.2      
Oct 17 16:53 N 17 16.09 Cloudy OVC070 19 9     52%     1025.1 1024.8      
Oct 17 15:53 NNW 15 16.09 Cloudy BKN075 OVC100 20 11     55%     1024.7 1024.6      
Oct 17 14:53 NNE 15 16.09 Cloudy OVC075 20 11     55%     1024.7 1024.6      
Oct 17 13:53 N 15 16.09 Cloudy SCT070 OVC080 19 11     59%     1024.7 1024.6      
Oct 17 12:53 N 15 16.09 Cloudy OVC070 20 12     59%     1025.7 1025.4 0   0
Oct 17 11:53 N 13 16.09 Cloudy OVC070 18 13     70%     1026.1 1025.9      
Oct 17 10:53 N 15 16.09 Cloudy FEW014 OVC065 18 13     75%     1026.1 1025.7      
Oct 17 09:53 NNE 11 16.09 Cloudy SCT042 OVC070 17 14     84%     1025.7 1025.6 0 0  
Oct 17 09:31 NNE 11 16.09 Light Rain SCT010 OVC040 17 14     86%     1025.7   0    
Oct 17 08:53 N 11 16.09 Cloudy OVC010 16 14     87%     1025.4 1025      
Oct 17 08:36 N 9 16.09 Cloudy OVC010 17 14     86%     1025.1        
Oct 17 08:24 NNW 13 16.09 Cloudy BKN008 BKN043 OVC065 17 14     86%     1024.7        
Oct 17 08:04 NE 5 16.09 Cloudy FEW007 OVC065 16 14     90%     1024.1        
Oct 17 07:53 NNE 5 16.09 Cloudy OVC065 16 14     90%     1024.1 1023.8 0    
Oct 17 07:35 N 9 16.09 Cloudy FEW008 OVC070 16 14     90%     1023.7   0    
Oct 17 07:02 NNE 13 16.09 Cloudy SCT010 OVC070 16 14     90%     1024.1        
Oct 17 06:53 N 13 16.09 Cloudy BKN010 OVC070 16 14     90%     1024.1 1023.7 0   0
Oct 17 06:24 NNE 15 16.09 Light Rain OVC010 16 14     90%     1023.7   0    
Oct 17 05:53 NNE 11 8.05 Rain and Fog/Mist OVC006 16 14     90%     1023.7 1023.3 0    
Oct 17 04:53 N 9 16.09 Cloudy OVC007 16 15     93%     1023.4 1023 0    
Oct 17 03:53 N 11 12.87 Light Rain BKN007 BKN022 OVC110 16 14     90%     1022.7 1022.4 0 0  
Oct 17 02:53 N 11 16.09 Cloudy OVC007 16 14     90%     1022.7 1022.5      
Oct 17 01:53 N 13 16.09 Cloudy OVC007 16 14     87%     1022.7 1022.4      
Oct 17 00:53 N 17 16.09 Cloudy OVC006 16 14     90%     1022 1021.9      
Oct 16 23:07 NNW 8 16.09 Partly Cloudy SCT008 17 16     90%     1022        
Oct 16 22:53 N 8 16.09 Clear CLR 17 16     90%     1022 1021.6      
Oct 16 21:53 ENE 9 16.09 Clear CLR 17 16     90%     1021.3 1021.2      
Oct 16 20:53 NNE 8 16.09 Partly Cloudy SCT009 17 16     90%     1021.7 1021.3      
Oct 16 20:51 NNE 8 16.09 Partly Cloudy SCT009 17 16     94%     1021.7        
Oct 16 19:53 NNE 11 16.09 Cloudy OVC008 17 15     87%     1021.3 1021.2      
Oct 16 18:53 N 9 16.09 Clear   17 15     87%     1021.7 1021.4      
Oct 16 18:33 N 9 16.09 Cloudy BKN009 OVC037 17 15     87%     1021.7        
Oct 16 18:00 NNE 11 16.09 Cloudy SCT009 OVC033 17 15     87%     1021        
Oct 16 17:53 N 13 16.09 Cloudy BKN009 OVC031 17 15     87%     1021 1020.9      
Oct 16 17:11 N 17 16.09 Cloudy FEW009 BKN016 OVC021 17 14     84%     1021.3        
Oct 16 17:03 NNW 18 16.09 Cloudy FEW010 BKN016 OVC021 17 15     87%     1021.3        
Oct 16 16:53 N 17 9.66 Fog/Mist SCT008 OVC014 17 15     87%     1021.3 1021.1      
Oct 16 16:04 N 13 12.87 Cloudy OVC009 19 16     84%     1020.3        
Oct 16 15:53 NNW 11 16.09 Cloudy OVC010 19 16     84%     1020.3 1020.1      
Oct 16 14:53 NNW 9 16.09 Cloudy OVC010 19 16     79%     1020 1019.9      
Oct 16 13:53 N 11 16.09 Cloudy OVC010 19 16     81%     1020.7 1020.3      
Oct 16 12:53 N 9 16.09 Cloudy OVC012 19 16     79%     1021 1020.9 0   0
Oct 16 12:20 N 9 16.09 Cloudy BKN012 OVC017 19 16     81%     1021.7        
Oct 16 11:53 NNE 11 16.09 Cloudy FEW011 OVC017 19 16     81%     1021.7 1021.4      
Oct 16 11:45 NNE 13 16.09 Cloudy SCT011 OVC017 19 16     81%     1021.7        
Oct 16 11:22 NE 11 16.09 Cloudy BKN010 OVC017 18 15     81%     1021.7        
Oct 16 11:15 NNE 13 16.09 Cloudy SCT010 OVC017 18 15     81%     1022        
Oct 16 11:01 NNE 13 16.09 Cloudy BKN010 OVC017 18 15     81%     1021.7        
Oct 16 10:53 NNE 15 16.09 Cloudy SCT009 OVC017 18 15     81%     1022 1021.7      
Oct 16 10:35 NNE 15 16.09 Cloudy BKN010 OVC018 18 15     81%     1022        
Oct 16 10:25 NE 13 16.09 Cloudy SCT010 OVC018 18 16     84%     1022.4        
Oct 16 10:15 NNE 13 16.09 Cloudy BKN010 OVC020 18 15     84%     1022.4        
Oct 16 09:53 NNE 15 16.09 Cloudy FEW009 OVC020 17 15     87%     1022.7 1022.3 0 0  
Oct 16 09:46 N 15 16.09 Cloudy FEW009 OVC020 17 15     87%     1022.7   0    
Oct 16 09:01 N 15 8.05 Light Rain and Fog/Mist SCT012 OVC021 17 15     90%     1022.4   0    
Oct 16 08:53 N 13 4.02 Light Rain and Fog/Mist FEW010 SCT013 OVC022 17 14     86%     1022.4 1022.2 0    
Oct 16 07:53 N 11 16.09 Cloudy FEW014 OVC022 18 14     81%     1021.7 1021.2 0    
Oct 16 07:19 NE 13 16.09 Cloudy SCT013 OVC027 18 14     78%     1021.3   0    
Oct 16 06:53 NNE 13 16.09 Cloudy BKN013 OVC030 18 14     78%     1021.3 1020.9      
Oct 16 05:53 NNE 15 16.09 Cloudy OVC011 17 14     84%     1021 1020.8      
Oct 16 04:53 N 17 16.09 Cloudy OVC013 18 14     78%     1020.7 1020.3      
Oct 16 03:53 N 22 16.09 Cloudy OVC013 19 16     81%     1020.7 1020.2      
Oct 16 02:53 NNW 13 16.09 Cloudy OVC012 21 17     78%     1020.3 1020.1      
Oct 16 01:53 N 11 16.09 Cloudy OVC013 21 18     81%     1020.7 1020.2      
Oct 16 00:53 NNW 9 16.09 Cloudy OVC012 22 19     84%   22 1020.3 1019.9      
Oct 16 00:09 NNW 9 16.09 Cloudy BKN012 OVC120 22 19     84%   23 1020        
Oct 15 23:53 N 13 16.09 Mostly Cloudy FEW012 BKN120 22 19     84%   23 1019.7 1019.4      
Oct 15 22:53 NNW 8 16.09 Mostly Clear FEW110 23 20     82%   24 1020.3 1019.9      
Oct 15 21:53 N 11 16.09 Mostly Clear FEW120 24 20     79%   24 1020.3 1019.9      
Oct 15 20:53 N 13 16.09 Cloudy OVC110 25 20     74%   25 1020 1019.5      
Oct 15 19:53 NNE 9 16.09 Cloudy OVC100 26 20     69%   27 1019.3 1019.2      
Oct 15 18:53 N 18 16.09 Clear CLR 27 20     67%   28 1019 1018.8      
Oct 15 17:53 N 9 16.09 Partly Cloudy SCT075 28 20     61%   30 1018.3 1018.1      
Oct 15 16:53 NNE 9 16.09 Clear CLR 31 19     48%   32 1018 1017.5      
Oct 15 15:53 Calm 16.09 Partly Cloudy SCT080 31 19     48%   32 1018 1017.7      
Oct 15 14:53 WNW 9 16.09 Mostly Cloudy SCT040 BKN075 29 19     55%   31 1018 1017.8      
Oct 15 13:53 Calm 16.09 Partly Cloudy FEW029 FEW050 SCT060 28 21     63%   30 1018.3 1018      
Oct 15 12:53 8 16.09 Mostly Cloudy FEW026 SCT036 BKN060 28 21     65%   31 1019 1018.7 0   0
Oct 15 12:43 WNW 9 16.09 Light Rain FEW022 BKN037 OVC055 28 21     67%   30 1019   0    
Oct 15 12:36 NNW 5 16.09 Cloudy FEW022 BKN028 OVC044 27 21     69%   28 1019.3        
Oct 15 11:53 5 16.09 Partly Cloudy SCT017 28 21     67%   30 1019.3 1019.1      
Oct 15 11:38 SSW 8 16.09 Mostly Cloudy BKN017 27 21     69%   29 1019.7        
Oct 15 11:13 5 16.09 Mostly Cloudy SCT011 BKN050 26 21     72%   27 1019.7        
Oct 15 10:53 S 9 14.48 Cloudy OVC011 24 20     76%   25 1019.7 1019.4      
Oct 15 09:53 Calm 16.09 Cloudy OVC012 23 18     74%   24 1020 1019.7      
Oct 15 09:34 Calm 16.09 Cloudy OVC013 23 18     76%   23 1020        
Oct 15 08:53 E 5 16.09 Mostly Cloudy FEW002 BKN018 BKN023 22 18     79%   22 1019.7 1019.2      
Oct 15 08:27 E 8 16.09 Cloudy SCT020 BKN025 OVC049 22 18     81%   22 1019.7        
Oct 15 08:00 Calm 16.09 Partly Cloudy FEW014 SCT021 21 18     84%     1019        
Oct 15 07:53 E 5 16.09 Mostly Cloudy SCT015 BKN021 21 18     84%     1019 1018.7      
Oct 15 06:53 Calm 16.09 Mostly Cloudy BKN016 19 17     90%     1018.6 1018.2      
Oct 15 05:53 Calm 16.09 Clear CLR 18 17     93%     1018.3 1017.8      
Oct 15 04:53 Calm 16.09 Clear CLR 19 17     87%     1017.3 1016.9      
Oct 15 03:53 Calm 16.09 Clear CLR 21 17     81%     1017.3 1016.9      
Oct 15 02:53 Calm 16.09 Clear CLR 19 18     90%     1017.3 1017.1      
Oct 15 01:53 Calm 16.09 Clear CLR 20 18     87%     1017.6 1017.3      
Oct 15 00:53 Calm 16.09 Clear CLR 21 18     87%     1017.6 1017.3      
Oct 14 23:53 SSE 5 16.09 Clear   24 17     66%   24 1017.3 1016.9      
Oct 14 22:53 Calm 16.09 Clear CLR 23 18     73%   23 1017.3 1016.9      
Oct 14 21:53 SE 8 16.09 Mostly Cloudy BKN120 25 18     64%   25 1017.3 1017.1      
Oct 14 20:53 SE 8 16.09 Mostly Cloudy BKN120 26 18     62%   26 1016.9 1016.7      
Oct 14 19:53 Calm 16.09 Partly Cloudy SCT120 24 17     64%   25 1016.3 1015.8      
Oct 14 18:53 Calm 16.09 Clear CLR 26 17     56%   26 1015.9 1015.5      
Oct 14 17:53 S 18 16.09 Clear CLR 28 16     48%   29 1015.2 1014.9      
Oct 14 16:53 S 13 16.09 Clear CLR 29 16     43%   29 1014.9 1014.5      
Oct 14 15:53 S 11 16.09 Clear CLR 30 16     42%   30 1014.9 1014.5      
Oct 14 14:53 SSW 18 16.09 Clear CLR 32 15     36%   31 1014.9 1014.6      
Oct 14 13:53 SSW 11 16.09 Mostly Clear FEW120 31 16     42%   31 1015.2 1014.9      
Oct 14 12:53 S 13 16.09 Clear CLR 29 17     48%   30 1015.9 1015.7      
Oct 14 11:53 S 13 16.09 Mostly Cloudy BKN110 28 17     53%   28 1016.6 1016.4      
Oct 14 10:53 S 15 16.09 Mostly Cloudy BKN100 26 17     56%   26 1017.3 1016.9      
Oct 14 09:53 S 11 16.09 Cloudy OVC110 24 16     60%   24 1017.3 1017.2      
Oct 14 08:53 SE 9 16.09 Mostly Cloudy BKN100 22 14     63%   22 1017.3 1017.1      
Oct 14 07:53 ESE 5 16.09 Mostly Cloudy BKN100 21 14     65%     1016.6 1016.3      
Oct 14 06:53 SE 13 16.09 Cloudy OVC100 19 13     68%     1015.9 1015.7      
Oct 14 05:53 ESE 8 16.09 Cloudy OVC100 18 14     78%     1015.6 1015.3      
Oct 14 04:53 SW 9 16.09 Mostly Cloudy BKN120 19 14     73%     1015.6 1015.4      
Oct 14 03:53 5 16.09 Clear CLR 18 14     78%     1014.6 1014.3      
Oct 14 02:53 E 5 16.09 Clear CLR 18 14     81%     1014.2 1014.1      
Oct 14 01:53 Calm 16.09 Clear CLR 17 15     87%     1014.6 1014.3      
Oct 14 00:53 Calm 16.09 Clear CLR 18 15     84%     1014.6 1014.2      
Oct 13 23:53 ENE 8 16.09 Mostly Clear FEW090 19 16     81%     1014.9 1014.6      
Oct 13 22:53 E 5 16.09 Mostly Cloudy BKN090 19 16     81%     1015.2 1014.9      
Oct 13 21:53 Calm 16.09 Mostly Clear FEW110 18 16     84%     1014.9 1014.7      
Oct 13 20:53 Calm 16.09 Clear CLR 18 15     84%     1014.9 1014.5      
Oct 13 19:53 Calm 16.09 Clear CLR 19 15     78%     1014.6 1014.4      
Oct 13 18:53 NE 9 16.09 Clear CLR 21 14     68%     1014.2 1013.9      
Oct 13 17:53 NNE 11 16.09 Clear CLR 24 14     52%   24 1013.6 1013.3      
Oct 13 16:53 Calm 16.09 Clear CLR 25 13     48%   25 1013.6 1013.2      
Oct 13 15:53 9 16.09 Clear CLR 26 14     48%   25 1013.9 1013.6      
Oct 13 14:53 NNW 5 16.09 Mostly Cloudy BKN046 26 13     47%   25 1013.9 1013.8      
Oct 13 13:53 8 16.09 Cloudy OVC046 26 13     47%   25 1014.6 1014.5      
Oct 13 12:53 NNW 5 16.09 Cloudy OVC046 24 13     50%   24 1015.6 1015.4      
Oct 13 11:53 NE 5 16.09 Cloudy OVC048 23 12     50%   23 1016.3 1016      
Oct 13 10:53 N 8 16.09 Mostly Cloudy BKN050 23 12     50%   22 1016.3 1016.2      
Oct 13 09:53 NE 9 16.09 Cloudy OVC050 20 11     57%     1016.6 1016.4      
Oct 13 08:53 Calm 16.09 Cloudy OVC050 17 13     78%     1016.6 1016.3      
Oct 13 06:53 Calm 11.27 Cloudy OVC050 13 12     93%     1015.6 1015.5      
Oct 13 04:53 Calm 14.48 Clear CLR 13 12     90%     1014.9 1014.6      
Oct 13 01:53 Calm 16.09 Cloudy OVC065 16 13     83%     1014.2 1014      
Oct 12 18:53 Calm 16.09 Clear CLR 18 11     63%     1013.2 1013      
Oct 12 17:53 Calm 16.09 Clear CLR 23 9     40%   23 1012.9 1012.6      
Oct 12 16:53 Calm 16.09 Clear CLR 25 8     35%   24 1012.9 1012.5      
Oct 12 15:53 8 16.09 Clear CLR 26 7     31%   25 1013.6 1013.2      
Oct 12 09:53 NNE 13 16.09 Clear CLR 18 7     48%     1017.3 1016.9      
Oct 12 07:53 N 9 16.09 Clear CLR 13 9     75%     1016.9 1016.8      
Oct 11 21:53 N 11 16.09 Clear CLR 17 11     67%       1016.1      
Oct 11 20:53 N 15 16.09 Clear CLR 18 11     65%     1015.6 1015.2      
Oct 11 12:53 NW 21 16.09 Clear CLR 24 13     50%   24 1013.9 1013.6      
Oct 11 11:53 N 15 16.09 Clear CLR 24 13     52%   24 1014.2 1014      
Notice The following observation data may not be complete
Oct 11 07:12   16.09 Mostly Cloudy BKN014          %              
Oct 11 06:53 NW 11 16.09 Mostly Clear FEW014 19 17     84%     1011.2 1011      
May 14 13:53 NE 9 16.09 Clear CLR 34 16     34%   35 1015.9 1015.6      
May 13 19:53 Calm 16.09 Clear CLR 27 21     69%   28 1016.3 1016.1      
May 12 07:48 Calm 3.22 Clear   21 17     78%     1021.7        
May 11 23:53 Calm 14.48 Clear CLR 19 18     96%     1018.6 1018.3      
Jun 11 13:53 11 16.09 Mostly Clear FEW050 32 19     47%   34 1019.3 1018.9      
Jun 11 12:53 SE 11 16.09 Mostly Clear FEW048 31 19     50%   33 1019.7 1019.4      
Jun 10 23:53 NNE 5 16.09 Clear CLR 22 19     84%   22 1018.3 1017.8 0    
Jun 10 11:53 5 16.09 Partly Cloudy SCT080 30 16     42%   30 1018.3 1017.9      
Jun 10 09:53 9 16.09 Clear CLR 27 17     53%   28 1018.3 1018.1      
Jun 09 15:53 SW 11 16.09 Clear CLR 28 14     44%   28 1013.9 1013.7      
Jun 09 01:53 Calm 12.87 Clear CLR 16 15     93%     1013.2 1012.9      
Jun 08 10:53 N 13 16.09 Clear CLR 24 15     56%   24 1013.9 1013.5      
Jun 06 03:53 NE 5 16.09 Cloudy OVC007 22 21     93%   23 1008.1 1007.9      
Jun 05 21:43 NE 8 16.09 Cloudy BKN009 OVC023 22 22     97%   23 1009.2   0